• en Suisse
  • Liste des pays
  • À 7 jours
  • Température de l'eau
  • Carte satellitaire
  • Carte météo
  • Widgets météo
  • user-avatar
    Se connecter

    Météo par heure à Ouina

    Ce jour, 19 Septembre, Mercredi

    Heure Température Précipitation Vent Pression Humidité
    00:00 +22°C° 0.8 mm 0 m/s 738 mmHg 98%
    01:00 +22°C° 0.3 mm 0 m/s 738 mmHg 99%
    02:00 +22°C° 0.3 mm 0 m/s 738 mmHg 99%
    03:00 +22°C° 0.3 mm 0 m/s 738 mmHg 99%
    04:00 +22°C° 0 mm 0 m/s 738 mmHg 99%
    05:00 +23°C° 0 mm 0 m/s 738 mmHg 99%
    06:00 +23°C° 0 mm 0 m/s 738 mmHg 99%
    07:00 +25°C° 0 mm 0 m/s 739 mmHg 88%
    08:00 +27°C° 0 mm 0 m/s 739 mmHg 78%
    09:00 +31°C° 0 mm 1 m/s 739 mmHg 67%
    10:00 +32°C° 0.6 mm 1 m/s 739 mmHg 69%
    11:00 +32°C° 0.6 mm 1 m/s 738 mmHg 70%
    12:00 +32°C° 0.6 mm 1 m/s 738 mmHg 71%
    13:00 +32°C° 1.2 mm 1 m/s 737 mmHg 75%
    14:00 +31°C° 1.2 mm 1 m/s 737 mmHg 79%
    15:00 +30°C° 1.2 mm 2 m/s 736 mmHg 83%
    16:00 +29°C° 1.7 mm 1 m/s 736 mmHg 88%
    17:00 +28°C° 1.7 mm 1 m/s 737 mmHg 92%
    18:00 +26°C° 1.7 mm 1 m/s 737 mmHg 97%
    19:00 +24°C° 0.4 mm 0 m/s 738 mmHg 98%
    20:00 +24°C° 0.4 mm 0 m/s 738 mmHg 98%
    21:00 +23°C° 0.4 mm 0 m/s 739 mmHg 98%
    22:00 +23°C° 0.5 mm 0 m/s 739 mmHg 98%
    23:00 +23°C° 0.5 mm 0 m/s 738 mmHg 99%

    Demain, 20 Septembre, Jeudi

    Heure Température Précipitation Vent Pression Humidité
    00:00 +23°C° 0.5 mm 0 m/s 738 mmHg 99%
    01:00 +23°C° 0.1 mm 0 m/s 738 mmHg 99%
    02:00 +23°C° 0.1 mm 0 m/s 738 mmHg 99%
    03:00 +23°C° 0.1 mm 0 m/s 737 mmHg 99%
    04:00 +23°C° 0.1 mm 0 m/s 738 mmHg 99%
    05:00 +23°C° 0.1 mm 0 m/s 738 mmHg 99%
    06:00 +23°C° 0.1 mm 0 m/s 738 mmHg 99%
    07:00 +26°C° 0.2 mm 1 m/s 738 mmHg 96%
    08:00 +27°C° 0.2 mm 1 m/s 739 mmHg 94%
    09:00 +28°C° 0.2 mm 1 m/s 739 mmHg 91%
    10:00 +28°C° 0.9 mm 1 m/s 739 mmHg 92%
    11:00 +28°C° 0.9 mm 1 m/s 739 mmHg 93%
    12:00 +29°C° 0.9 mm 1 m/s 739 mmHg 94%
    13:00 +28°C° 1.1 mm 1 m/s 738 mmHg 95%
    14:00 +28°C° 1.1 mm 1 m/s 738 mmHg 95%
    15:00 +28°C° 1.1 mm 1 m/s 737 mmHg 96%
    16:00 +27°C° 2.4 mm 1 m/s 737 mmHg 97%
    17:00 +26°C° 2.4 mm 1 m/s 738 mmHg 97%
    18:00 +25°C° 2.4 mm 1 m/s 738 mmHg 98%
    19:00 +25°C° 1.1 mm 1 m/s 738 mmHg 98%
    20:00 +23°C° 1.1 mm 0 m/s 739 mmHg 99%
    21:00 +23°C° 1.1 mm 0 m/s 740 mmHg 99%
    22:00 +23°C° 0.6 mm 0 m/s 739 mmHg 99%
    23:00 +23°C° 0.6 mm 0 m/s 739 mmHg 99%

    Après-demain, 21 Septembre, Vendredi

    Heure Température Précipitation Vent Pression Humidité
    00:00 +23°C° 0.6 mm 0 m/s 739 mmHg 99%
    01:00 +23°C° 0.1 mm 0 m/s 738 mmHg 99%
    02:00 +22°C° 0.1 mm 0 m/s 738 mmHg 99%
    03:00 +22°C° 0.1 mm 0 m/s 738 mmHg 99%
    04:00 +23°C° 0.9 mm 0 m/s 738 mmHg 99%
    05:00 +23°C° 0.9 mm 0 m/s 738 mmHg 99%
    06:00 +23°C° 0.9 mm 0 m/s 739 mmHg 99%
    07:00 +23°C° 1.1 mm 0 m/s 739 mmHg 98%
    08:00 +24°C° 1.1 mm 0 m/s 740 mmHg 97%
    09:00 +27°C° 1.1 mm 1 m/s 740 mmHg 96%
    10:00 +28°C° 0.3 mm 1 m/s 740 mmHg 92%
    11:00 +28°C° 0.3 mm 1 m/s 739 mmHg 87%
    12:00 +29°C° 0.3 mm 1 m/s 739 mmHg 82%
    13:00 +29°C° 0.5 mm 1 m/s 738 mmHg 83%
    14:00 +29°C° 0.5 mm 1 m/s 738 mmHg 85%
    15:00 +29°C° 0.5 mm 1 m/s 737 mmHg 86%
    16:00 +28°C° 0.2 mm 1 m/s 738 mmHg 90%
    17:00 +27°C° 0.2 mm 1 m/s 738 mmHg 93%
    18:00 +24°C° 0.2 mm 0 m/s 738 mmHg 97%
    19:00 +23°C° 0 mm 0 m/s 739 mmHg 97%
    20:00 +23°C° 0 mm 0 m/s 739 mmHg 98%
    21:00 +23°C° 0 mm 0 m/s 740 mmHg 99%
    22:00 +23°C° 0 mm 0 m/s 739 mmHg 99%
    23:00 +23°C° 0 mm 0 m/s 739 mmHg 99%

    22 Septembre, Samedi

    Heure Température Précipitation Vent Pression Humidité
    00:00 +22°C° 0 mm 0 m/s 739 mmHg 99%
    01:00 +22°C° 0 mm 0 m/s 738 mmHg 99%
    02:00 +22°C° 0 mm 0 m/s 738 mmHg 99%
    03:00 +22°C° 0 mm 0 m/s 738 mmHg 99%
    04:00 +22°C° 0 mm 0 m/s 738 mmHg 99%
    05:00 +22°C° 0 mm 0 m/s 738 mmHg 98%
    06:00 +22°C° 0 mm 0 m/s 738 mmHg 98%
    07:00 +24°C° 0 mm 0 m/s 739 mmHg 92%
    08:00 +25°C° 0 mm 0 m/s 739 mmHg 85%
    09:00 +29°C° 0 mm 1 m/s 739 mmHg 79%
    10:00 +31°C° 0.1 mm 1 m/s 739 mmHg 71%
    11:00 +33°C° 0.1 mm 1 m/s 738 mmHg 63%
    12:00 +34°C° 0.1 mm 1 m/s 737 mmHg 55%
    13:00 +32°C° 2.4 mm 1 m/s 737 mmHg 68%
    14:00 +30°C° 2.4 mm 1 m/s 736 mmHg 82%
    15:00 +28°C° 2.4 mm 2 m/s 736 mmHg 95%
    16:00 +27°C° 1.6 mm 1 m/s 736 mmHg 96%
    17:00 +26°C° 1.6 mm 1 m/s 737 mmHg 97%
    18:00 +25°C° 1.6 mm 1 m/s 738 mmHg 98%
    19:00 +25°C° 0.6 mm 1 m/s 738 mmHg 98%
    20:00 +23°C° 0.6 mm 0 m/s 739 mmHg 98%
    21:00 +22°C° 0.6 mm 0 m/s 739 mmHg 98%
    22:00 +22°C° 0.2 mm 0 m/s 739 mmHg 99%
    23:00 +22°C° 0.2 mm 0 m/s 738 mmHg 99%

    23 Septembre, Dimanche

    Heure Température Précipitation Vent Pression Humidité
    00:00 +22°C° 0.2 mm 0 m/s 738 mmHg 99%
    01:00 +22°C° 0.1 mm 0 m/s 738 mmHg 99%
    02:00 +22°C° 0.1 mm 0 m/s 737 mmHg 99%
    03:00 +22°C° 0.1 mm 0 m/s 737 mmHg 99%
    04:00 +22°C° 0 mm 0 m/s 737 mmHg 99%
    05:00 +22°C° 0 mm 0 m/s 738 mmHg 99%
    06:00 +22°C° 0 mm 0 m/s 738 mmHg 99%
    07:00 +24°C° 0.1 mm 0 m/s 738 mmHg 90%
    08:00 +28°C° 0.1 mm 1 m/s 739 mmHg 81%
    09:00 +30°C° 0.1 mm 1 m/s 739 mmHg 72%
    10:00 +30°C° 1.1 mm 1 m/s 739 mmHg 79%
    11:00 +29°C° 1.1 mm 1 m/s 738 mmHg 85%
    12:00 +29°C° 1.1 mm 1 m/s 738 mmHg 91%
    13:00 +29°C° 0.8 mm 1 m/s 737 mmHg 90%
    14:00 +29°C° 0.8 mm 1 m/s 737 mmHg 88%
    15:00 +29°C° 0.8 mm 1 m/s 736 mmHg 87%
    16:00 +28°C° 0.5 mm 1 m/s 737 mmHg 90%
    17:00 +27°C° 0.5 mm 1 m/s 737 mmHg 93%
    18:00 +24°C° 0.5 mm 0 m/s 738 mmHg 96%
    19:00 +23°C° 0.3 mm 0 m/s 738 mmHg 97%
    20:00 +23°C° 0.3 mm 0 m/s 738 mmHg 97%
    21:00 +22°C° 0.3 mm 0 m/s 739 mmHg 98%
    22:00 +22°C° 0.2 mm 0 m/s 739 mmHg 98%
    23:00 +22°C° 0.2 mm 0 m/s 738 mmHg 98%

    24 Septembre, Lundi

    Heure Température Précipitation Vent Pression Humidité
    00:00 +22°C° 0.2 mm 0 m/s 738 mmHg 98%
    01:00 +22°C° 0 mm 0 m/s 738 mmHg 99%
    02:00 +22°C° 0 mm 0 m/s 738 mmHg 99%
    03:00 +21°C° 0 mm 0 m/s 738 mmHg 99%
    04:00 +21°C° 0 mm 0 m/s 738 mmHg 99%
    05:00 +21°C° 0 mm 0 m/s 738 mmHg 99%
    06:00 +21°C° 0 mm 0 m/s 739 mmHg 99%
    07:00 +23°C° 0 mm 0 m/s 739 mmHg 93%
    08:00 +26°C° 0 mm 1 m/s 739 mmHg 87%
    09:00 +28°C° 0 mm 1 m/s 740 mmHg 81%
    10:00 +29°C° 0.2 mm 1 m/s 739 mmHg 74%
    11:00 +31°C° 0.2 mm 1 m/s 739 mmHg 67%
    12:00 +32°C° 0.2 mm 1 m/s 738 mmHg 59%
    13:00 +32°C° 0.1 mm 2 m/s 738 mmHg 58%
    14:00 +32°C° 0.1 mm 2 m/s 737 mmHg 56%
    15:00 +34°C° 0.1 mm 2 m/s 737 mmHg 55%
    16:00 +31°C° 0.1 mm 1 m/s 737 mmHg 64%
    17:00 +29°C° 0.1 mm 1 m/s 738 mmHg 74%
    18:00 +27°C° 0.1 mm 1 m/s 738 mmHg 83%
    19:00 +26°C° 0 mm 1 m/s 739 mmHg 88%
    20:00 +25°C° 0 mm 1 m/s 739 mmHg 92%
    21:00 +22°C° 0 mm 0 m/s 740 mmHg 97%
    22:00 +22°C° 0 mm 0 m/s 739 mmHg 97%
    23:00 +21°C° 0 mm 0 m/s 739 mmHg 98%
    Voir plus